Flag for Switzerland Weather past 2 weeks in Lugano, Switzerland

Now
72 °F

Passing clouds.


Feels Like: 76 °F
Forecast: 52 / 71 °F
Wind: 9 mph from South

Location: Lugano Airport

Current Time: May 30, 2015 at 1:08:10 PM

Latest Report: May 30, 2015 at 12:20 PM


Visibility: N/A

Pressure: 29.98 "Hg

Humidity: 61%

Dew point: 57 °F

Location of LuganoLocation

Historic Weather in Lugano — Graph

°F

Lugano temperature yesterday

Maximum temperature yesterday: 75 °F (at 3:50 PM)
Minimum temperature yesterday: 52 °F (at 3:20 AM)
Average temperature yesterday: 64 °F

Past Weeks' High & Low Weather Summary

 TemperatureHumidityPressure
High81 °F (May 17, 4:20 PM)100% (May 16, 2:20 AM)30.18 "Hg (May 16, 2:20 AM)
Low46 °F (May 20, 11:50 PM)22% (May 27, 2:20 PM)29.59 "Hg (May 15, 2:20 PM)
Average62 °F65%29.94 "Hg
* Reported May 15 11:20 AM — May 30 11:50 AM, Lugano, Weather by CustomWeather, © 2015

Note: Actual official high and low records may vary slightly from our data, if they occured in-between our weather recording intervals... More about our weather records

Advertising

Lugano weather history for previous 24 hours

 ConditionsComfort  
Time TempWeatherWind HumidityBarometerVisibility
11:50 AM
Sat, May 30
70 °FPassing clouds.9 mph60%29.98 "HgN/A
11:20 AM70 °FPassing clouds.7 mph60%29.98 "Hg5 mi
10:50 AM68 °FPassing clouds.6 mph64%29.98 "Hg5 mi
10:20 AM66 °FPassing clouds.5 mph68%29.98 "Hg5 mi
9:50 AM64 °FPassing clouds.5 mph73%29.98 "Hg5 mi
9:20 AM64 °FPassing clouds.5 mph78%29.98 "Hg5 mi
8:50 AM63 °FScattered clouds.3 mph83%29.98 "Hg5 mi
8:20 AM63 °FPassing clouds.2 mph83%29.98 "Hg5 mi
7:50 AM59 °FScattered clouds.1 mph94%29.98 "Hg5 mi
7:20 AM57 °FScattered clouds.2 mph94%29.98 "Hg5 mi
6:50 AM55 °FScattered clouds.2 mph100%29.98 "Hg4 mi
6:20 AM55 °FPassing clouds.1 mph100%29.95 "Hg4 mi
5:50 AM57 °FFog.1 mph94%29.95 "Hg2 mi
5:20 AM57 °FClear.1 mph94%29.95 "Hg3 mi
4:50 AM59 °FOvercast.2 mph88%29.95 "Hg5 mi
4:20 AM59 °FLight rain. Passing clouds.5 mph88%29.95 "HgN/A
3:50 AM61 °FLight rain. Partly cloudy.3 mph83%29.95 "HgN/A
3:20 AM59 °FOvercast.1 mph88%29.95 "HgN/A
2:50 AM59 °FPassing clouds.3 mph82%29.95 "HgN/A
2:20 AM59 °FPartly cloudy.1 mph82%29.95 "HgN/A
1:50 AM57 °FPassing clouds.6 mph88%29.95 "HgN/A
1:20 AM59 °FPassing clouds.2 mph82%29.95 "HgN/A
12:50 AM59 °FPassing clouds.1 mph88%29.95 "HgN/A
12:20 AM61 °FPassing clouds.1 mph83%29.95 "HgN/A
11:50 PM
Fri, May 29
61 °FOvercast.1 mph83%29.95 "HgN/A
11:20 PM63 °FPassing clouds.2 mph73%29.95 "HgN/A
10:20 PM61 °FCool.2 mph77%29.95 "HgN/A
9:50 PM64 °FScattered clouds.2 mph68%29.95 "Hg6 mi
9:20 PM64 °FScattered clouds.2 mph68%29.95 "Hg6 mi
8:50 PM68 °FScattered clouds.5 mph60%29.92 "Hg6 mi
8:20 PM68 °FScattered clouds.3 mph60%29.92 "Hg6 mi
7:50 PM70 °FScattered clouds.3 mph57%29.92 "Hg6 mi
7:20 PM72 °FScattered clouds.6 mph50%29.92 "Hg6 mi
6:50 PM72 °FScattered clouds.6 mph50%29.92 "HgN/A
6:20 PM72 °FScattered clouds.7 mph50%29.92 "HgN/A
5:50 PM72 °FScattered clouds.7 mph50%29.92 "HgN/A
5:20 PM73 °FScattered clouds.7 mph47%29.92 "HgN/A
4:50 PM73 °FScattered clouds.8 mph53%29.92 "HgN/A
4:20 PM73 °FScattered clouds.9 mph44%29.95 "HgN/A
3:50 PM75 °FScattered clouds.9 mph44%29.95 "HgN/A
3:20 PM73 °FScattered clouds.10 mph47%29.95 "HgN/A
2:50 PM73 °FScattered clouds.9 mph47%29.95 "HgN/A
2:20 PM73 °FScattered clouds.9 mph44%29.98 "HgN/A
1:50 PM73 °FScattered clouds.9 mph47%29.98 "HgN/A
1:20 PM72 °FScattered clouds.9 mph50%29.98 "HgN/A
Weather by CustomWeather, © 2015

See weather overviewHow to use our weather pages